Regional Weather Roundup
Issued by NWS

Home | Current Version | Previous Version | Text Only | Print | Product List | Glossary Off
Versions: 1 2 3 4 5 6 7 8 9 10 11 12 13 14 15 16 17 18 19 20 21 22 23 24 25 26 27 28 29 30 31 32 33 34 35 36 37 38 39 40 41 42 43 44 45 46 47 48 49 50

000
ASUS43 KLOT 040303
RWRIL

ILLINOIS REGIONAL WEATHER ROUNDUP
NATIONAL WEATHER SERVICE CHICAGO/ROMEOVILLE IL
1000 PM CDT TUE MAY 03 2016

NOTE: "FAIR" INDICATES FEW OR NO CLOUDS BELOW 12,000 FEET WITH NO
SIGNIFICANT WEATHER AND/OR OBSTRUCTIONS TO VISIBILITY.

* THESE STATIONS ARE NOT UNDER NWS QUALITY CONTROL. THEY ALSO MAY NOT
  REPORT WEATHER SUCH AS PRECIPITATION OR FOG.

ILZ001-002-007-009-015-016-024-040400-
NORTHWEST ILLINOIS

CITY           SKY/WX    TMP DP  RH WIND       PRES   REMARKS
MOLINE           N/A     62  41  46 SW13      29.74F
STERLING*      CLOUDY    59  45  58 VRB6      29.74F
$$

ILZ003-004-008-010-011-017-018-040400-
NORTH CENTRAL ILLINOIS

CITY           SKY/WX    TMP DP  RH WIND       PRES   REMARKS
ROCKFORD       MOCLDY    60  42  51 SW10      29.73F
FREEPORT*      CLOUDY    57  42  57 SW13      29.71F
DE KALB*       CLOUDY    58  43  57 SW10      29.74F
$$

ILZ005-006-012>014-019>023-040400-
NORTHEAST ILLINOIS

CITY           SKY/WX    TMP DP  RH WIND       PRES   REMARKS
CHICAGO-OHARE  CLOUDY    60  40  47 SW12      29.72F
CHICAGO-MIDWAY CLOUDY    62  38  40 SW13      29.74F
AURORA         CLOUDY    59  43  55 SW12      29.74F
LANSING*       CLOUDY    57  41  55 SW7       29.76F
WAUKEGAN       CLOUDY    58  42  55 SW9       29.70F
DUPAGE AIRPORT CLOUDY    58  40  51 SW10      29.73F
WHEELING       CLOUDY    61  40  45 SW8       29.73F
NORTHERLY ISL    N/A     62  36  37 W9          N/A
NORTHERLY ISL    N/A     62  36  37 W9          N/A
$$

LMZ740>746-040400-
SOUTHERN LAKE MICHIGAN

STATION/POSITION SKY/WX   TEMP    WIND        PRES    VSBY  WAVE
                          AIR SEA DIR/SP/G                  HT/PER
                          (F)     (DEG/KT/KT) (MB)    (MI)  (FT/S)
SOUTHERN BUOY              46 41  180/ 12/ 12 1006.1          1/ 3
HARRISON CRIB              64     230/ 15/ 19   N/A
BURNHAM HARBOR             62     230/  5/ 11   N/A
CALUMET HARBOR             62                 1007.3F
BURNS HARBOR               62     220/  9/ 12 1008.8S
MICHIGAN CITY              61     180/  9/  9   N/A
ST. JOSEPH                 54 50                N/A           1
$$

ILZ025>027-034>036-040-047-049-050-058-095>099-040400-
WEST-CENTRAL ILLINOIS

CITY           SKY/WX    TMP DP  RH WIND       PRES   REMARKS
QUINCY         MOCLDY    55  45  68 SW7       29.85F
MACOMB*        CLOUDY    58  45  61 SW10      29.84F
$$

ILZ028>032-037-038-041>044-048-051>054-059>061-040400-
CENTRAL ILLINOIS

CITY           SKY/WX    TMP DP  RH WIND       PRES   REMARKS
BLOOMINGTON    CLOUDY    57  42  57 SW10      29.83F
DECATUR        PTCLDY    57  45  64 SW10      29.87F
PEORIA         MOCLDY    58  39  49 SW9       29.81F
SPRINGFIELD    CLOUDY    58  44  60 SW8       29.86F
TAYLORVILLE    NOT AVBL
$$

ILZ033-039-045-046-055>057-062-063-040400-
EAST-CENTRAL ILLINOIS

CITY           SKY/WX    TMP DP  RH WIND       PRES   REMARKS
CHAMPAIGN      PTCLDY    54  45  71 SW10      29.85F
MATTOON        CLEAR     55  44  66 SW7       29.87F
$$

ILZ079-100>102-040400-
SOUTHWEST ILLINOIS

CITY           SKY/WX    TMP DP  RH WIND       PRES   REMARKS
ALTON          CLEAR     54  45  71 SW9       29.92S
BELLEVILLE     CLEAR     52  48  84 SW3       29.91F
CAHOKIA*       CLEAR     53  46  77 S3        29.92S
SPARTA*        CLEAR     53  46  75 CALM      29.95S
$$

ILZ064>066-069>071-074>076-080>082-084>086-088>090-092>094-040400-
SOUTH-CENTRAL ILLINOIS

CITY           SKY/WX    TMP DP  RH WIND       PRES   REMARKS
CARBONDALE     CLEAR     52  45  77 W6        29.94S
MT. VERNON     CLOUDY    50  43  76 CALM      29.93S
SALEM*         CLEAR     54  47  77 SW5       29.92S
$$

ILZ067-068-072-073-078-083-087-091-040400-
SOUTHEAST ILLINOIS

CITY           SKY/WX    TMP DP  RH WIND       PRES   REMARKS
LAWRENCEVILLE  CLOUDY    59  46  62 W8        29.90S
FLORA*         CLOUDY    58  46  63 W7        29.91F
HARRISBURG*    CLOUDY    56  47  72 W3        29.94S
ROBINSON*      CLOUDY    57  47  69 W12       29.89F
$$

ABBREVIATIONS USED IN REMARKS
   TC - TEMPERATURE IN CELSIUS
  WCI - WIND CHILL INDEX
   HX - HEAT INDEX
  VSB - VISIBILITY
$$





USA.gov is the U.S. government's official web portal to all federal, state and local government web resources and services.